| time (UTC) | temp F | wind direction | speed MPH | gust MPH | rain 1hr in | rain 24hr in | rain mn in | humidity % | barometer mb |
| 20260508213003 | 71 | 195 | 1.0 | 3.0 | 0.00 | 0.03 | 0.00 | 36 | 1013.7 |
| 20260508212503 | 71 | 301 | 0.0 | 2.0 | 0.00 | 0.03 | 0.00 | 39 | 1013.8 |
| 20260508212003 | 71 | 302 | 1.0 | 3.0 | 0.00 | 0.03 | 0.00 | 37 | 1013.6 |
| 20260508211503 | 71 | 151 | 1.0 | 2.0 | 0.00 | 0.03 | 0.00 | 38 | 1013.8 |
| 20260508211003 | 70 | 306 | 1.0 | 2.0 | 0.00 | 0.03 | 0.00 | 36 | 1013.7 |
| 20260508210503 | 70 | 130 | 1.0 | 3.0 | 0.00 | 0.03 | 0.00 | 35 | 1013.8 |
| 20260508210003 | 70 | 296 | 1.0 | 5.0 | 0.00 | 0.03 | 0.00 | 38 | 1013.9 |
| 20260508205503 | 70 | 140 | 2.0 | 6.0 | 0.00 | 0.03 | 0.00 | 37 | 1014.1 |
| 20260508205003 | 71 | 217 | 2.0 | 5.0 | 0.00 | 0.03 | 0.00 | 35 | 1014.1 |
| 20260508204503 | 71 | 202 | 2.0 | 5.0 | 0.00 | 0.03 | 0.00 | 33 | 1014.2 |
| 20260508204003 | 71 | 197 | 1.0 | 5.0 | 0.00 | 0.03 | 0.00 | 34 | 1014.2 |
| 20260508203503 | 71 | 155 | 2.0 | 5.0 | 0.00 | 0.03 | 0.00 | 36 | 1014.3 |
| 20260508203003 | 73 | 168 | 2.0 | 6.0 | 0.00 | 0.03 | 0.00 | 35 | 1014.1 |
| 20260508202503 | 73 | 307 | 1.0 | 3.0 | 0.00 | 0.03 | 0.00 | 35 | 1014.1 |
| 20260508202004 | 73 | 179 | 1.0 | 3.0 | 0.00 | 0.03 | 0.00 | 33 | 1014.1 |
| 20260508201503 | 72 | 274 | 1.0 | 3.0 | 0.00 | 0.03 | 0.00 | 34 | 1014.1 |
| 20260508201004 | 72 | 139 | 1.0 | 2.0 | 0.00 | 0.03 | 0.00 | 36 | 1014.0 |
| 20260508200003 | 72 | 148 | 1.0 | 5.0 | 0.00 | 0.04 | 0.00 | 36 | 1014.1 |
| 20260508195504 | 72 | 151 | 2.0 | 5.0 | 0.00 | 0.04 | 0.00 | 36 | 1014.3 |
| 20260508195004 | 72 | 243 | 1.0 | 5.0 | 0.00 | 0.04 | 0.00 | 36 | 1014.3 |
| 20260508194003 | 71 | 250 | 1.0 | 3.0 | 0.00 | 0.04 | 0.00 | 37 | 1014.5 |
| 20260508193503 | 71 | 136 | 1.0 | 3.0 | 0.00 | 0.05 | 0.00 | 39 | 1014.5 |
| 20260508193003 | 72 | 183 | 1.0 | 3.0 | 0.00 | 0.05 | 0.00 | 34 | 1014.4 |
| 20260508192504 | 72 | 223 | 1.0 | 3.0 | 0.00 | 0.05 | 0.00 | 36 | 1014.6 |
| 20260508192004 | 72 | 190 | 1.0 | 3.0 | 0.00 | 0.05 | 0.00 | 39 | 1014.7 |
| 20260508191503 | 71 | 190 | 1.0 | 3.0 | 0.00 | 0.05 | 0.00 | 37 | 1014.8 |
| 20260508191004 | 71 | 212 | 2.0 | 6.0 | 0.00 | 0.05 | 0.00 | 40 | 1014.7 |
| 20260508190504 | 71 | 317 | 1.0 | 3.0 | 0.00 | 0.05 | 0.00 | 36 | 1014.9 |
| 20260508185503 | 70 | 76 | 1.0 | 5.0 | 0.00 | 0.05 | 0.00 | 38 | 1015.0 |
| 20260508185004 | 71 | 192 | 2.0 | 6.0 | 0.00 | 0.07 | 0.00 | 38 | 1015.1 |
| 20260508184504 | 71 | 158 | 1.0 | 5.0 | 0.00 | 0.07 | 0.00 | 37 | 1015.2 |
| 20260508184003 | 71 | 153 | 1.0 | 5.0 | 0.00 | 0.07 | 0.00 | 39 | 1015.2 |
| 20260508183503 | 70 | 313 | 1.0 | 3.0 | 0.00 | 0.07 | 0.00 | 40 | 1015.3 |
| 20260508183003 | 70 | 298 | 1.0 | 5.0 | 0.00 | 0.08 | 0.00 | 42 | 1015.4 |
| 20260508181503 | 70 | 299 | 1.0 | 5.0 | 0.00 | 0.09 | 0.00 | 38 | 1015.5 |
| 20260508181004 | 70 | 40 | 2.0 | 5.0 | 0.00 | 0.09 | 0.00 | 39 | 1015.5 |
| 20260508180504 | 69 | 195 | 2.0 | 3.0 | 0.00 | 0.09 | 0.00 | 38 | 1015.6 |
| 20260508180003 | 69 | 143 | 2.0 | 5.0 | 0.00 | 0.09 | 0.00 | 42 | 1015.7 |
| 20260508175505 | 69 | 258 | 2.0 | 3.0 | 0.00 | 0.10 | 0.00 | 41 | 1015.8 |
| 20260508174503 | 68 | 43 | 1.0 | 3.0 | 0.00 | 0.11 | 0.00 | 37 | 1015.8 |
| 20260508174004 | 68 | 100 | 1.0 | 3.0 | 0.00 | 0.11 | 0.00 | 36 | 1015.9 |
| 20260508173003 | 69 | 7 | 1.0 | 3.0 | 0.00 | 0.17 | 0.00 | 35 | 1015.9 |
| 20260508172503 | 68 | 175 | 1.0 | 5.0 | 0.00 | 0.17 | 0.00 | 38 | 1016.0 |
| 20260508172003 | 68 | 277 | 1.0 | 5.0 | 0.00 | 0.17 | 0.00 | 35 | 1016.0 |
| 20260508171503 | 68 | 218 | 2.0 | 3.0 | 0.00 | 0.17 | 0.00 | 39 | 1016.0 |
| 20260508171004 | 68 | 271 | 1.0 | 2.0 | 0.00 | 0.17 | 0.00 | 38 | 1016.0 |
| 20260508170503 | 68 | 96 | 2.0 | 5.0 | 0.00 | 0.17 | 0.00 | 37 | 1016.1 |
| 20260508170004 | 67 | 165 | 1.0 | 5.0 | 0.00 | 0.17 | 0.00 | 46 | 1016.3 |
| 20260508165503 | 67 | 282 | 1.0 | 3.0 | 0.00 | 0.17 | 0.00 | 39 | 1016.3 |
| 20260508165004 | 67 | 85 | 1.0 | 3.0 | 0.00 | 0.17 | 0.00 | 40 | 1016.5 |
| 20260508164503 | 68 | 167 | 1.0 | 3.0 | 0.00 | 0.17 | 0.00 | 46 | 1016.5 |
| 20260508164004 | 67 | 281 | 1.0 | 3.0 | 0.00 | 0.19 | 0.00 | 50 | 1016.6 |
| 20260508163503 | 66 | 55 | 2.0 | 3.0 | 0.00 | 0.20 | 0.00 | 47 | 1016.7 |
| 20260508163004 | 66 | 147 | 1.0 | 5.0 | 0.00 | 0.21 | 0.00 | 45 | 1016.8 |
| 20260508162503 | 66 | 266 | 1.0 | 6.0 | 0.00 | 0.21 | 0.00 | 44 | 1016.9 |
| 20260508162003 | 66 | 313 | 2.0 | 5.0 | 0.00 | 0.22 | 0.00 | 44 | 1017.0 |
| 20260508161503 | 66 | 322 | 2.0 | 7.0 | 0.00 | 0.23 | 0.00 | 46 | 1017.0 |
| 20260508161004 | 66 | 285 | 2.0 | 7.0 | 0.00 | 0.23 | 0.00 | 44 | 1017.0 |
| 20260508160503 | 66 | 47 | 1.0 | 3.0 | 0.00 | 0.23 | 0.00 | 47 | 1017.0 |
| 20260508155003 | 65 | 125 | 1.0 | 3.0 | 0.00 | 0.25 | 0.00 | 45 | 1017.3 |
| 20260508154503 | 65 | 262 | 1.0 | 3.0 | 0.00 | 0.25 | 0.00 | 50 | 1017.3 |
| 20260508154003 | 65 | 283 | 2.0 | 5.0 | 0.00 | 0.26 | 0.00 | 44 | 1017.4 |
| 20260508153503 | 65 | 206 | 2.0 | 5.0 | 0.00 | 0.26 | 0.00 | 48 | 1017.5 |
| 20260508153003 | 64 | 83 | 2.0 | 6.0 | 0.00 | 0.26 | 0.00 | 50 | 1017.4 |
| 20260508152503 | 65 | 94 | 1.0 | 2.0 | 0.00 | 0.26 | 0.00 | 50 | 1017.5 |
| 20260508152003 | 65 | 43 | 1.0 | 3.0 | 0.00 | 0.26 | 0.00 | 48 | 1017.4 |
| 20260508151004 | 64 | 0 | 1.0 | 3.0 | 0.00 | 0.26 | 0.00 | 50 | 1017.4 |
| 20260508150503 | 64 | 201 | 1.0 | 3.0 | 0.00 | 0.27 | 0.00 | 48 | 1017.5 |
| 20260508150003 | 64 | 273 | 1.0 | 3.0 | 0.00 | 0.27 | 0.00 | 52 | 1017.4 |
| 20260508145504 | 63 | 86 | 1.0 | 2.0 | 0.00 | 0.27 | 0.00 | 56 | 1017.4 |
| 20260508144504 | 62 | 285 | 1.0 | 5.0 | 0.00 | 0.28 | 0.00 | 53 | 1017.4 |
| 20260508143503 | 62 | 210 | 1.0 | 3.0 | 0.00 | 0.29 | 0.00 | 56 | 1017.3 |
| 20260508143004 | 62 | 160 | 2.0 | 3.0 | 0.00 | 0.29 | 0.00 | 55 | 1017.2 |
| 20260508142503 | 62 | 333 | 1.0 | 6.0 | 0.00 | 0.29 | 0.00 | 58 | 1017.2 |
| 20260508141503 | 61 | 342 | 1.0 | 3.0 | 0.00 | 0.29 | 0.00 | 58 | 1017.2 |
| 20260508141004 | 61 | 39 | 1.0 | 5.0 | 0.00 | 0.29 | 0.00 | 60 | 1017.2 |
| 20260508140504 | 60 | 218 | 1.0 | 3.0 | 0.00 | 0.29 | 0.00 | 63 | 1017.1 |
| 20260508140004 | 60 | 65 | 1.0 | 2.0 | 0.00 | 0.29 | 0.00 | 64 | 1017.1 |
| 20260508135505 | 59 | 70 | 1.0 | 2.0 | 0.00 | 0.29 | 0.00 | 69 | 1017.0 |
| 20260508135004 | 59 | 187 | 1.0 | 3.0 | 0.00 | 0.29 | 0.00 | 72 | 1017.0 |
| 20260508134504 | 58 | 170 | 1.0 | 6.0 | 0.00 | 0.29 | 0.00 | 68 | 1017.1 |
| 20260508134003 | 58 | 31 | 2.0 | 5.0 | 0.00 | 0.29 | 0.00 | 73 | 1017.4 |
| 20260508133504 | 57 | 51 | 1.0 | 2.0 | 0.00 | 0.30 | 0.00 | 76 | 1017.4 |
| 20260508133003 | 57 | 78 | 1.0 | 5.0 | 0.00 | 0.30 | 0.00 | 71 | 1017.3 |
| 20260508132503 | 56 | 332 | 1.0 | 5.0 | 0.00 | 0.30 | 0.00 | 75 | 1017.1 |
| 20260508132003 | 56 | 259 | 1.0 | 3.0 | 0.00 | 0.30 | 0.00 | 73 | 1017.0 |
| 20260508131503 | 55 | 98 | 1.0 | 3.0 | 0.00 | 0.30 | 0.00 | 75 | 1017.0 |
| 20260508131003 | 55 | 70 | 1.0 | 2.0 | 0.00 | 0.30 | 0.00 | 79 | 1017.0 |
| 20260508130504 | 54 | 190 | 1.0 | 3.0 | 0.00 | 0.30 | 0.00 | 82 | 1017.0 |
| 20260508130004 | 53 | 281 | 1.0 | 3.0 | 0.00 | 0.30 | 0.00 | 85 | 1017.0 |
| 20260508125504 | 52 | 35 | 1.0 | 2.0 | 0.00 | 0.30 | 0.00 | 90 | 1017.2 |
| 20260508125003 | 52 | 89 | 0.0 | 1.0 | 0.00 | 0.30 | 0.00 | 94 | 1017.1 |
| 20260508124503 | 51 | 85 | 1.0 | 1.0 | 0.00 | 0.30 | 0.00 | 96 | 1017.1 |
| 20260508123504 | 51 | 61 | 0.0 | 1.0 | 0.00 | 0.30 | 0.00 | 97 | 1017.1 |
| 20260508123004 | 51 | 64 | 1.0 | 3.0 | 0.00 | 0.30 | 0.00 | 97 | 1017.0 |
| 20260508122504 | 50 | 322 | 1.0 | 3.0 | 0.00 | 0.30 | 0.00 | 97 | 1017.0 |
| 20260508121504 | 50 | 132 | 0.0 | 1.0 | 0.00 | 0.30 | 0.00 | 97 | 1016.9 |
| 20260508120503 | 50 | 186 | 0.0 | 2.0 | 0.00 | 0.30 | 0.00 | 97 | 1016.8 |
| 20260508120004 | 50 | 113 | 0.0 | 1.0 | 0.00 | 0.30 | 0.00 | 97 | 1016.7 |
| 20260508115503 | 50 | 88 | 1.0 | 2.0 | 0.00 | 0.30 | 0.00 | 97 | 1016.6 |
| 20260508115003 | 50 | 36 | 0.0 | 1.0 | 0.00 | 0.30 | 0.00 | 97 | 1016.5 |
| 20260508114503 | 50 | 347 | 0.0 | 1.0 | 0.00 | 0.30 | 0.00 | 97 | 1016.5 |
| 20260508114004 | 50 | 340 | 0.0 | 1.0 | 0.00 | 0.30 | 0.00 | 97 | 1016.5 |
| 20260508113504 | 50 | 47 | 0.0 | 1.0 | 0.00 | 0.30 | 0.00 | 97 | 1016.5 |
| 20260508113004 | 50 | 15 | 0.0 | 1.0 | 0.00 | 0.30 | 0.00 | 97 | 1016.3 |
| 20260508112503 | 50 | 130 | 0.0 | 1.0 | 0.00 | 0.30 | 0.00 | 97 | 1016.2 |
| 20260508112003 | 50 | 168 | 0.0 | 1.0 | 0.00 | 0.30 | 0.00 | 97 | 1016.1 |
| 20260508111505 | 50 | 36 | 0.0 | 1.0 | 0.00 | 0.30 | 0.00 | 97 | 1016.0 |
| 20260508111003 | 50 | 8 | 0.0 | 1.0 | 0.00 | 0.30 | 0.00 | 97 | 1015.9 |
| 20260508110503 | 50 | 34 | 0.0 | 1.0 | 0.00 | 0.30 | 0.00 | 97 | 1015.9 |
| 20260508110003 | 50 | 226 | 1.0 | 2.0 | 0.00 | 0.30 | 0.00 | 97 | 1015.9 |
| 20260508105503 | 50 | 186 | 1.0 | 2.0 | 0.00 | 0.30 | 0.00 | 97 | 1015.8 |
| 20260508105004 | 50 | 218 | 0.0 | 2.0 | 0.00 | 0.30 | 0.00 | 97 | 1015.7 |
| 20260508104503 | 50 | 319 | 1.0 | 2.0 | 0.00 | 0.30 | 0.00 | 97 | 1015.6 |
| 20260508104003 | 50 | 324 | 0.0 | 1.0 | 0.00 | 0.30 | 0.00 | 97 | 1015.6 |
| 20260508103003 | 50 | 358 | 0.0 | 1.0 | 0.00 | 0.30 | 0.00 | 97 | 1015.4 |
| 20260508102003 | 50 | 96 | 0.0 | 1.0 | 0.00 | 0.30 | 0.00 | 97 | 1015.2 |
| 20260508101004 | 50 | 133 | 0.0 | 1.0 | 0.00 | 0.30 | 0.00 | 97 | 1015.0 |
| 20260508100504 | 50 | 2 | 1.0 | 1.0 | 0.00 | 0.30 | 0.00 | 97 | 1015.0 |
| 20260508095503 | 49 | 124 | 0.0 | 0.0 | 0.00 | 0.30 | 0.00 | 97 | 1014.9 |
| 20260508094503 | 49 | 62 | 0.0 | 1.0 | 0.00 | 0.30 | 0.00 | 97 | 1015.0 |
| 20260508094004 | 49 | 194 | 0.0 | 2.0 | 0.00 | 0.30 | 0.00 | 97 | 1014.9 |
| 20260508093503 | 49 | 102 | 0.0 | 1.0 | 0.00 | 0.30 | 0.00 | 97 | 1014.9 |
| 20260508093004 | 49 | 209 | 0.0 | 0.0 | 0.00 | 0.30 | 0.00 | 97 | 1014.8 |
| 20260508092504 | 49 | 209 | 0.0 | 0.0 | 0.00 | 0.30 | 0.00 | 97 | 1014.9 |
| 20260508092004 | 49 | 209 | 0.0 | 0.0 | 0.00 | 0.30 | 0.00 | 97 | 1014.8 |
| 20260508091503 | 49 | 209 | 0.0 | 0.0 | 0.00 | 0.30 | 0.00 | 97 | 1014.9 |
| 20260508091003 | 49 | 209 | 0.0 | 1.0 | 0.00 | 0.30 | 0.00 | 97 | 1014.7 |
| 20260508090504 | 49 | 192 | 0.0 | 1.0 | 0.00 | 0.30 | 0.00 | 97 | 1014.6 |
| 20260508090004 | 49 | 198 | 0.0 | 0.0 | 0.00 | 0.30 | 0.00 | 97 | 1014.6 |
| 20260508085504 | 49 | 198 | 1.0 | 2.0 | 0.00 | 0.30 | 0.00 | 97 | 1014.5 |
| 20260508085004 | 49 | 56 | 1.0 | 2.0 | 0.00 | 0.30 | 0.00 | 97 | 1014.5 |
| 20260508084004 | 49 | 163 | 1.0 | 3.0 | 0.00 | 0.30 | 0.00 | 97 | 1014.4 |
| 20260508083503 | 49 | 175 | 0.0 | 0.0 | 0.00 | 0.30 | 0.00 | 97 | 1014.4 |
| 20260508083004 | 49 | 175 | 0.0 | 0.0 | 0.00 | 0.30 | 0.00 | 97 | 1014.3 |
| 20260508082503 | 50 | 175 | 0.0 | 1.0 | 0.00 | 0.30 | 0.00 | 97 | 1014.3 |
| 20260508082004 | 50 | 167 | 0.0 | 1.0 | 0.00 | 0.35 | 0.00 | 97 | 1014.2 |
| 20260508081504 | 50 | 226 | 0.0 | 1.0 | 0.00 | 0.35 | 0.00 | 97 | 1014.3 |
| 20260508080004 | 50 | 24 | 0.0 | 0.0 | 0.00 | 0.35 | 0.00 | 97 | 1014.0 |
| 20260508075503 | 51 | 24 | 0.0 | 1.0 | 0.00 | 0.35 | 0.00 | 97 | 1013.9 |
| 20260508075004 | 51 | 206 | 0.0 | 2.0 | 0.00 | 0.35 | 0.00 | 97 | 1014.0 |
| 20260508074503 | 51 | 114 | 0.0 | 0.0 | 0.00 | 0.35 | 0.00 | 97 | 1013.9 |
| 20260508074004 | 51 | 212 | 0.0 | 2.0 | 0.00 | 0.35 | 0.00 | 97 | 1013.9 |
| 20260508073504 | 51 | 124 | 0.0 | 2.0 | 0.00 | 0.35 | 0.00 | 97 | 1013.8 |
| 20260508073003 | 52 | 110 | 0.0 | 1.0 | 0.00 | 0.35 | 0.00 | 97 | 1013.8 |
| 20260508072503 | 52 | 114 | 0.0 | 0.0 | 0.00 | 0.35 | 0.00 | 97 | 1013.7 |
| 20260508072005 | 52 | 114 | 0.0 | 0.0 | 0.00 | 0.44 | 0.00 | 97 | 1013.7 |
| 20260508071504 | 52 | 111 | 0.0 | 0.0 | 0.00 | 0.46 | 0.00 | 97 | 1013.7 |
| 20260508071004 | 52 | 3 | 0.0 | 1.0 | 0.00 | 0.48 | 0.00 | 97 | 1013.5 |
| 20260508070503 | 52 | 91 | 0.0 | 1.0 | 0.00 | 0.51 | 0.00 | 97 | 1013.5 |
| 20260508070004 | 52 | 189 | 0.0 | 1.0 | 0.00 | 0.51 | 0.00 | 97 | 1013.4 |
| 20260508065504 | 52 | 93 | 0.0 | 1.0 | 0.00 | 0.52 | 0.00 | 97 | 1013.5 |
| 20260508065004 | 52 | 130 | 0.0 | 1.0 | 0.00 | 0.54 | 0.00 | 97 | 1013.5 |
| 20260508064504 | 51 | 60 | 0.0 | 1.0 | 0.00 | 0.56 | 0.00 | 97 | 1013.5 |
| 20260508064004 | 51 | 92 | 1.0 | 1.0 | 0.00 | 0.57 | 0.00 | 97 | 1013.4 |
| 20260508063503 | 51 | 164 | 0.0 | 1.0 | 0.00 | 0.58 | 0.00 | 97 | 1013.5 |
| 20260508063004 | 51 | 198 | 1.0 | 2.0 | 0.00 | 0.59 | 0.00 | 97 | 1013.5 |
| 20260508062504 | 51 | 282 | 0.0 | 1.0 | 0.00 | 0.60 | 0.00 | 96 | 1013.5 |
| 20260508062004 | 52 | 138 | 0.0 | 1.0 | 0.00 | 0.60 | 0.00 | 96 | 1013.5 |
| 20260508061503 | 52 | 144 | 0.0 | 1.0 | 0.00 | 0.61 | 0.00 | 96 | 1013.7 |
| 20260508061003 | 52 | 73 | 0.0 | 0.0 | 0.00 | 0.61 | 0.00 | 96 | 1013.6 |
| 20260508060504 | 52 | 37 | 1.0 | 1.0 | 0.00 | 0.61 | 0.00 | 96 | 1013.6 |
| 20260508055504 | 53 | 184 | 0.0 | 1.0 | 0.00 | 0.74 | 0.00 | 96 | 1013.5 |
| 20260508055004 | 53 | 333 | 0.0 | 0.0 | 0.00 | 0.74 | 0.00 | 96 | 1013.6 |
| 20260508054504 | 53 | 332 | 0.0 | 1.0 | 0.00 | 0.74 | 0.00 | 97 | 1013.5 |
| 20260508053504 | 53 | 83 | 0.0 | 0.0 | 0.00 | 0.74 | 0.00 | 97 | 1013.5 |
| 20260508053004 | 53 | 105 | 0.0 | 0.0 | 0.00 | 0.74 | 0.00 | 97 | 1013.5 |
| 20260508052504 | 53 | 141 | 0.0 | 1.0 | 0.00 | 0.75 | 0.00 | 96 | 1013.3 |
| 20260508052004 | 53 | 118 | 0.0 | 1.0 | 0.00 | 0.75 | 0.00 | 96 | 1013.4 |
| 20260508051504 | 53 | 117 | 0.0 | 1.0 | 0.00 | 0.76 | 0.00 | 97 | 1013.4 |
| 20260508050504 | 53 | 113 | 0.0 | 1.0 | 0.00 | 0.77 | 0.00 | 97 | 1013.3 |
| 20260508050003 | 53 | 82 | 0.0 | 1.0 | 0.00 | 0.77 | 0.00 | 96 | 1013.3 |
| 20260508045004 | 53 | 102 | 1.0 | 1.0 | 0.00 | 0.77 | 0.00 | 96 | 1013.4 |
| 20260508044003 | 53 | 187 | 1.0 | 1.0 | 0.00 | 0.77 | 0.00 | 96 | 1013.3 |
| 20260508043503 | 53 | 283 | 0.0 | 1.0 | 0.00 | 0.77 | 0.00 | 96 | 1013.4 |
| 20260508041004 | 53 | 234 | 1.0 | 1.0 | 0.00 | 0.77 | 0.00 | 96 | 1013.1 |
| 20260508040504 | 53 | 90 | 0.0 | 1.0 | 0.00 | 0.77 | 0.00 | 96 | 1013.1 |
| 20260508040004 | 53 | 146 | 1.0 | 1.0 | 0.00 | 0.77 | 0.00 | 96 | 1013.0 |
| 20260508035004 | 53 | 95 | 0.0 | 1.0 | 0.00 | 0.77 | 0.58 | 96 | 1012.9 |
| 20260508034503 | 53 | 131 | 1.0 | 2.0 | 0.00 | 0.77 | 0.58 | 96 | 1012.8 |
| 20260508034004 | 53 | 278 | 0.0 | 1.0 | 0.00 | 0.77 | 0.58 | 96 | 1013.0 |
| 20260508033503 | 53 | 156 | 0.0 | 1.0 | 0.00 | 0.77 | 0.58 | 96 | 1012.9 |
| 20260508032503 | 53 | 0 | 0.0 | 1.0 | 0.00 | 0.77 | 0.58 | 96 | 1012.8 |
| 20260508032003 | 53 | 26 | 0.0 | 1.0 | 0.00 | 0.77 | 0.58 | 96 | 1012.9 |
| 20260508031504 | 54 | 28 | 0.0 | 0.0 | 0.00 | 0.77 | 0.58 | 96 | 1012.9 |
| 20260508030004 | 54 | 152 | 1.0 | 1.0 | 0.00 | 0.77 | 0.58 | 96 | 1012.7 |
| 20260508025504 | 54 | 137 | 1.0 | 2.0 | 0.00 | 0.77 | 0.58 | 96 | 1012.7 |
| 20260508024507 | 54 | 26 | 0.0 | 1.0 | 0.00 | 0.77 | 0.58 | 96 | 1012.4 |
| 20260508024004 | 54 | 81 | 0.0 | 0.0 | 0.00 | 0.77 | 0.58 | 96 | 1012.3 |
| 20260508023003 | 54 | 97 | 0.0 | 1.0 | 0.00 | 0.77 | 0.58 | 96 | 1012.3 |
| 20260508022504 | 54 | 162 | 1.0 | 2.0 | 0.00 | 0.77 | 0.58 | 96 | 1012.2 |
| 20260508022004 | 54 | 72 | 1.0 | 1.0 | 0.00 | 0.77 | 0.58 | 96 | 1012.1 |
| 20260508021504 | 54 | 164 | 0.0 | 0.0 | 0.00 | 0.77 | 0.58 | 96 | 1012.1 |
| 20260508020004 | 54 | 118 | 0.0 | 1.0 | 0.00 | 0.77 | 0.58 | 96 | 1012.1 |
| 20260508015503 | 54 | 137 | 0.0 | 1.0 | 0.00 | 0.77 | 0.58 | 96 | 1012.0 |
| 20260508015004 | 54 | 105 | 0.0 | 0.0 | 0.00 | 0.77 | 0.58 | 96 | 1011.9 |
| 20260508014504 | 54 | 105 | 0.0 | 0.0 | 0.00 | 0.77 | 0.58 | 96 | 1011.7 |
| 20260508014004 | 54 | 105 | 0.0 | 0.0 | 0.00 | 0.77 | 0.58 | 96 | 1011.5 |
| 20260508013503 | 54 | 105 | 0.0 | 1.0 | 0.00 | 0.77 | 0.58 | 96 | 1011.5 |
| 20260508012004 | 54 | 177 | 0.0 | 1.0 | 0.00 | 0.77 | 0.58 | 95 | 1011.5 |
| 20260508011507 | 54 | 81 | 0.0 | 0.0 | 0.00 | 0.77 | 0.58 | 95 | 1011.5 |
| 20260508011004 | 54 | 144 | 0.0 | 0.0 | 0.00 | 0.77 | 0.58 | 95 | 1011.6 |
| 20260508010012 | 54 | 33 | 1.0 | 2.0 | 0.00 | 0.77 | 0.58 | 95 | 1011.3 |
| 20260508005004 | 54 | 139 | 0.0 | 1.0 | 0.00 | 0.77 | 0.58 | 95 | 1011.2 |
| 20260508004504 | 54 | 147 | 0.0 | 2.0 | 0.00 | 0.77 | 0.58 | 95 | 1011.2 |
| 20260508004004 | 54 | 200 | 0.0 | 2.0 | 0.00 | 0.77 | 0.58 | 95 | 1011.0 |
| 20260508003503 | 54 | 12 | 1.0 | 2.0 | 0.00 | 0.77 | 0.58 | 95 | 1010.9 |
| 20260508002504 | 54 | 348 | 0.0 | 1.0 | 0.03 | 0.77 | 0.58 | 95 | 1010.9 |
| 20260508001503 | 55 | 116 | 0.0 | 1.0 | 0.03 | 0.77 | 0.58 | 95 | 1010.8 |
| 20260508001004 | 55 | 136 | 1.0 | 1.0 | 0.03 | 0.77 | 0.58 | 94 | 1011.0 |
| 20260508000503 | 55 | 132 | 0.0 | 1.0 | 0.03 | 0.77 | 0.58 | 94 | 1011.0 |
| 20260508000004 | 55 | 355 | 0.0 | 0.0 | 0.03 | 0.77 | 0.58 | 94 | 1011.0 |
| 20260507235503 | 55 | 355 | 0.0 | 2.0 | 0.03 | 0.77 | 0.58 | 94 | 1010.8 |
| 20260507235003 | 55 | 174 | 0.0 | 1.0 | 0.03 | 0.77 | 0.58 | 94 | 1010.7 |
| 20260507234503 | 55 | 0 | 1.0 | 1.0 | 0.03 | 0.77 | 0.58 | 94 | 1010.6 |
| 20260507234004 | 55 | 321 | 0.0 | 1.0 | 0.03 | 0.77 | 0.58 | 94 | 1010.7 |
| 20260507233503 | 55 | 291 | 0.0 | 1.0 | 0.03 | 0.77 | 0.58 | 94 | 1010.6 |
| 20260507233004 | 55 | 195 | 0.0 | 2.0 | 0.03 | 0.77 | 0.58 | 94 | 1010.4 |
| 20260507232504 | 55 | 309 | 1.0 | 2.0 | 0.00 | 0.73 | 0.55 | 94 | 1010.1 |
| 20260507232004 | 55 | 28 | 1.0 | 2.0 | 0.00 | 0.73 | 0.55 | 94 | 1010.0 |
| 20260507231504 | 55 | 167 | 1.0 | 2.0 | 0.00 | 0.73 | 0.55 | 94 | 1009.9 |
| 20260507231004 | 55 | 283 | 0.0 | 1.0 | 0.00 | 0.73 | 0.55 | 94 | 1009.9 |
| 20260507230504 | 55 | 190 | 1.0 | 3.0 | 0.00 | 0.73 | 0.55 | 94 | 1009.8 |
| 20260507230003 | 55 | 210 | 0.0 | 2.0 | 0.00 | 0.73 | 0.55 | 94 | 1009.9 |
| 20260507225504 | 55 | 187 | 2.0 | 5.0 | 0.00 | 0.73 | 0.55 | 93 | 1010.0 |
| 20260507225003 | 55 | 178 | 2.0 | 5.0 | 0.00 | 0.73 | 0.55 | 93 | 1009.9 |
| 20260507224504 | 55 | 0 | 1.0 | 2.0 | 0.00 | 0.73 | 0.55 | 94 | 1009.9 |
| 20260507224004 | 55 | 125 | 1.0 | 3.0 | 0.00 | 0.73 | 0.55 | 94 | 1009.9 |
| 20260507223504 | 55 | 52 | 1.0 | 3.0 | 0.00 | 0.73 | 0.55 | 94 | 1009.8 |
| 20260507223003 | 55 | 109 | 1.0 | 3.0 | 0.00 | 0.73 | 0.55 | 94 | 1009.7 |
| 20260507222503 | 55 | 53 | 1.0 | 2.0 | 0.00 | 0.73 | 0.55 | 94 | 1009.9 |
| 20260507221504 | 55 | 31 | 0.0 | 1.0 | 0.00 | 0.74 | 0.55 | 94 | 1010.3 |
| 20260507220504 | 56 | 51 | 1.0 | 2.0 | 0.00 | 0.74 | 0.55 | 94 | 1010.4 |
| 20260507220004 | 56 | 203 | 0.0 | 2.0 | 0.00 | 0.74 | 0.55 | 94 | 1010.2 |
| 20260507215503 | 56 | 278 | 1.0 | 3.0 | 0.00 | 0.74 | 0.55 | 94 | 1010.0 |
| 20260507215004 | 56 | 127 | 0.0 | 2.0 | 0.00 | 0.74 | 0.55 | 94 | 1009.9 |
| 20260507214504 | 55 | 179 | 0.0 | 2.0 | 0.00 | 0.74 | 0.55 | 94 | 1009.8 |
| 20260507214004 | 55 | 52 | 1.0 | 2.0 | 0.00 | 0.74 | 0.55 | 95 | 1009.7 |
| 20260507213503 | 55 | 346 | 1.0 | 2.0 | 0.00 | 0.74 | 0.55 | 94 | 1009.9 |